SCP
0 0 0 0 0 0 0 0 0 0 0 0 0 0 0 0 0 0 0 0 0 0 0 0 0 0 0 0 0 0 0 0 0 1 1 1 0 0 0 0 0 0 0
0 0 0 0 0 0 0 0 0 0 0 0 0 0 0 0 0 0 0 0 0 0 0 0 0 0 0 0 0 0 0 0 0 0 1 1 1 0 0 0 0 0 0
0 0 0 0 0 0 0 0 0 0 0 0 0 0 0 0 0 0 0 0 0 0 0 0 0 0 0 0 0 0 0 0 0 0 0 1 1 1 0 0 0 0 0
0 0 0 0 0 0 0 0 0 0 0 0 0 0 0 0 0 0 0 0 0 0 0 0 0 1 1 0 0 0 0 0 0 0 0 0 1 1 1 0 0 0 0
0 0 0 0 0 0 0 0 0 0 0 0 0 0 0 0 0 0 0 0 0 0 0 0 1 1 1 1 0 0 0 0 0 0 0 0 0 1 1 1 1 0 0
0 0 0 0 0 0 0 0 0 0 0 0 0 0 0 0 0 0 0 0 0 0 0 0 0 0 1 1 1 0 0 0 0 0 0 0 0 0 1 1 1 1 0
0 0 0 0 0 0 0 0 0 0 0 0 0 0 0 0 0 0 0 0 0 0 0 0 0 0 0 0 0 0 0 0 -0 -0 0 0 0 0 1 1 1 1 1
0 0 0 0 0 0 0 0 0 0 0 0 0 0 0 0 0 0 0 0 0 0 0 0 0 0 0 0 0 1 0 0 0 0 0 0 0 0 0 1 1 1 1
0 0 0 0 0 0 0 0 0 0 0 0 0 0 0 0 0 0 0 0 0 0 0 0 0 0 0 0 0 0 0 0 0 0 0 0 0 0 0 0 1 1 1
0 0 0 0 0 0 0 0 0 0 0 0 0 0 0 0 0 0 0 0 0 0 0 0 0 0 0 0 0 0 0 0 0 0 0 0 0 0 0 0 0 1 1
0 0 0 0 0 0 0 0 0 0 0 0 0 0 0 0 0 0 0 0 0 0 -0 0 0 0 0 0 0 0 0 0 0 0 0 0 0 0 0 0 0 0 0
0 0 0 0 0 0 0 0 0 0 0 0 0 0 0 0 0 0 0 0 0 0 0 0 0 0 0 0 0 0 0 0 0 0 0 0 0 0 0 0 0 0 0
0 0 0 0 0 0 0 0 0 0 0 0 0 0 0 0 0 0 0 0 0 0 0 0 0 0 0 0 0 0 0 0 0 0 0 0 0 0 0 0 0 0 0
0 0 0 0 0 0 0 0 0 0 0 0 0 0 0 0 0 0 0 0 0 0 0 0 0 0 0 0 0 0 0 0 0 0 0 0 0 0 0 0 0 0 0
0 0 0 0 0 0 0 0 0 0 0 0 0 0 0 -0 -0 0 0 0 0 0 0 0 0 0 0 0 0 0 0 0 0 0 0 0 0 0 0 0 0 0 0
0 0 0 0 0 0 0 0 0 0 0 0 0 0 0 0 0 0 0 0 0 0 0 0 0 0 0 0 0 0 0 0 0 0 0 0 0 0 0 0 0 0 0
0 0 0 0 0 0 0 0 0 0 0 0 0 0 0 0 0 0 0 0 0 0 0 0 0 0 0 0 0 0 0 0 0 0 0 0 0 0 0 0 0 0 0
0 0 0 0 0 0 0 0 0 0 0 0 0 0 0 -0 0 0 0 0 0 0 0 0 0 0 0 0 0 0 0 0 0 -0 -0 -0 -0 -0 -0 -0 -0 0 -0
0 0 0 0 0 0 0 0 0 0 0 0 0 0 0 0 -0 -0 -0 -0 0 0 0 0 0 0 0 0 0 0 0 0 0 -0 -0 -0 -0 -0 -0 -0 -0 -0 -0
0 0 0 -0 -0 0 0 0 0 0 0 0 0 0 0 -0 -0 -0 0 0 -0 0 0 0 0 0 0 0 0 0 0 0 0 0 0 0 0 -0 -0 -0 -0 -0 -0
0 0 -0 0 -0 0 0 0 0 0 0 0 0 0 -0 0 -0 -0 0 0 0 0 0 0 0 0 0 0 0 0 0 0 0 0 0 0 0 0 0 -0 -0 -0 -0
0 0 -0 -0 -0 -0 0 0 0 0 0 0 0 0 0 -0 0 -0 -0 -0 0 0 0 0 0 0 0 0 0 0 0 0 0 0 0 0 0 0 0 0 -0 -0 0
0 -0 0 -0 -0 -0 -0 0 0 0 0 0 0 0 0 0 0 0 0 0 0 0 0 0 0 0 0 0 0 0 0 0 0 0 0 0 0 0 0 0 -0 -0 -0
0 -0 -0 0 -0 -0 -0 -0 -0 -0 0 0 0 0 0 0 0 0 0 0 0 0 0 0 0 0 0 0 0 0 0 0 0 0 0 0 0 0 0 0 -0 -0 -0
0 -0 -0 0 0 -0 -0 -0 0 -0 0 0 0 0 0 0 0 0 0 0 0 0 0 0 0 0 0 0 0 0 0 0 0 0 0 0 0 0 0 -0 -0 -0 -0
0 0 -0 0 0 -0 -0 -0 -0 0 -0 0 0 0 0 0 0 0 0 0 0 0 0 0 0 0 0 0 0 0 -0 0 0 0 0 0 0 0 0 0 0 0 0
Wind_Speed_500mb
41 45 31 28 34 29 28 36 40 39 44 45 45 49 57 58 57 56 46 49 48 36 40 43 47 48 39 36 32 24 19 28 31 33 33 38 45 47 44 42 39 37 37
36 39 36 36 33 34 34 37 41 41 46 48 47 53 60 58 49 46 40 40 46 46 42 45 54 57 48 44 36 28 27 27 28 34 33 31 37 47 49 46 44 42 41
38 41 44 41 35 39 38 40 44 45 49 50 49 55 61 57 56 55 53 49 47 46 47 49 47 53 54 48 45 37 33 27 23 27 33 36 33 37 47 51 49 48 45
39 42 45 43 40 43 45 47 49 49 50 55 55 59 64 54 49 51 51 48 49 50 44 48 49 51 57 50 43 43 38 33 29 29 27 32 41 38 37 46 54 55 52
39 46 48 46 50 52 53 52 54 50 53 54 57 62 62 44 42 46 38 47 45 44 38 44 44 48 53 51 43 40 39 37 37 37 40 42 43 46 45 39 46 51 60
44 47 48 51 54 51 56 57 52 51 56 55 59 65 50 41 36 33 22 35 23 33 30 28 35 37 36 37 38 40 38 36 37 42 42 47 50 52 54 51 44 45 54
44 47 50 47 48 53 54 55 51 56 52 53 65 61 50 29 28 10 22 17 6 19 26 27 36 40 48 47 43 42 39 38 37 40 44 48 47 50 53 58 54 47 47
43 47 45 46 50 52 53 50 51 56 53 47 46 50 29 41 18 29 10 15 5 7 19 28 29 36 38 32 38 38 40 40 44 48 50 44 45 46 47 54 59 55 49
28 34 38 37 38 39 41 49 49 47 47 42 33 30 17 12 28 26 14 15 19 10 5 12 19 21 28 23 27 37 42 48 51 58 46 39 41 42 44 50 51 55 55
34 32 35 43 46 49 51 42 39 43 36 42 36 38 39 35 24 26 17 21 23 19 17 10 5 14 21 20 25 31 36 38 39 38 35 37 40 42 42 46 49 48 50
40 47 49 49 46 45 46 52 50 46 44 37 35 36 41 37 37 40 35 28 17 21 22 33 27 12 11 16 19 24 26 28 33 33 30 30 29 34 40 44 47 50 44
42 46 41 37 50 50 45 48 39 36 37 44 46 42 38 36 25 26 27 26 27 23 21 17 21 23 30 24 21 17 17 19 24 30 29 24 26 27 32 39 44 46 48
46 41 41 43 40 39 40 34 35 35 40 40 41 28 30 26 23 27 28 28 25 20 11 8 11 16 21 17 16 14 18 17 14 17 21 27 29 29 31 33 36 41 44
37 37 35 34 35 34 32 33 29 26 25 26 25 23 21 21 22 20 23 19 17 11 7 11 10 11 11 8 9 10 11 10 9 8 12 18 27 32 34 37 37 39 39
28 25 27 29 27 26 24 22 19 21 23 22 19 17 17 14 18 19 20 16 17 4 6 3 2 7 10 11 9 3 7 4 2 5 9 16 20 25 31 39 39 40 40
23 23 26 22 19 21 24 23 21 22 22 20 20 18 16 15 13 11 12 15 14 14 9 8 5 5 11 14 11 7 7 4 2 7 11 10 5 13 17 30 39 43 38
26 24 26 26 27 24 25 24 25 27 27 27 25 20 13 9 18 12 8 10 13 14 11 8 11 13 2 7 9 12 14 13 22 15 12 11 14 11 9 20 29 31 33
29 28 29 28 27 26 29 31 25 32 27 37 26 19 20 19 15 13 10 9 14 13 16 12 10 10 5 18 12 17 33 35 51 43 54 54 40 22 22 18 19 25 32
33 29 31 30 30 33 32 28 31 38 31 26 18 18 19 15 17 15 13 14 11 21 18 12 14 23 26 34 30 36 38 32 35 31 35 43 47 52 63 55 40 40 30
33 34 34 33 37 38 45 42 40 36 28 30 27 18 9 14 12 8 10 12 10 21 18 16 23 30 34 39 42 45 46 45 45 45 37 40 40 40 35 39 41 37 54
34 30 28 32 34 39 47 49 39 32 30 28 34 32 31 21 12 11 21 17 15 20 24 27 28 36 32 30 36 34 48 45 45 44 44 50 48 48 46 44 44 40 37
36 31 30 38 39 48 50 46 32 31 33 37 32 31 29 27 23 20 15 24 19 18 19 34 35 39 39 30 25 35 37 46 50 40 40 46 39 46 49 49 43 40 40
40 35 35 35 45 52 55 42 33 34 38 42 37 34 32 33 32 30 28 25 17 16 27 22 32 25 18 26 20 23 21 34 41 43 43 47 40 45 43 42 36 35 37
41 43 37 35 41 49 57 45 28 30 38 37 38 36 32 37 38 31 32 35 39 35 32 29 34 40 33 23 17 16 25 43 45 40 43 49 37 43 39 41 38 36 36
39 40 38 31 37 43 52 54 32 28 34 33 33 34 35 40 34 31 36 36 38 46 46 42 42 38 32 29 21 21 35 36 39 33 32 39 35 37 34 35 34 36 33
35 34 35 31 32 37 44 52 46 31 32 33 36 37 36 37 35 36 48 56 57 48 42 36 26 25 25 22 26 18 23 28 36 33 32 43 38 38 34 34 34 35 35
Wind_Direction_500mb
248 262 269 283 293 297 299 309 320 326 329 325 322 319 318 310 307 304 287 269 259 253 244 230 234 238 251 255 247 237 264 286 251 242 237 234 232 230 229 227 223 220 220
237 263 268 280 277 295 307 318 321 323 330 327 323 317 317 314 309 306 298 281 258 249 241 240 232 237 244 248 237 230 261 278 264 247 239 235 233 230 229 229 226 222 221
259 266 271 273 287 306 305 311 315 319 328 323 318 320 320 313 308 305 296 282 263 246 243 240 240 235 239 240 234 225 234 238 255 261 251 243 239 232 230 228 229 228 225
274 279 276 267 290 297 300 303 309 314 319 319 318 320 324 316 312 309 304 290 266 248 243 242 243 238 233 231 229 229 230 233 245 252 260 257 249 243 235 230 229 228 227
282 275 274 276 287 287 289 291 296 305 309 312 313 320 321 316 310 311 312 297 288 243 248 240 237 234 227 227 220 225 231 244 253 259 259 257 251 247 242 235 233 231 227
289 272 276 280 280 281 290 293 293 301 308 310 314 319 313 315 306 306 308 331 293 234 245 231 216 209 208 209 206 215 232 247 265 272 271 256 245 240 239 236 234 233 230
291 281 285 288 287 291 287 286 295 297 296 305 311 315 308 315 311 297 284 319 267 200 204 212 206 213 212 221 228 229 242 255 262 273 274 263 240 240 236 235 233 233 233
279 278 277 283 285 285 292 293 291 292 295 298 305 307 310 314 303 303 274 266 251 189 200 192 191 198 195 218 214 239 248 257 273 274 274 251 239 239 240 233 231 231 233
294 290 285 289 291 292 297 296 296 291 302 304 295 289 295 283 298 304 306 236 253 285 252 216 215 223 222 241 250 254 264 271 276 274 256 238 237 242 238 230 229 230 231
309 299 303 307 310 311 311 303 293 300 304 299 292 286 286 268 268 284 245 247 289 282 265 248 207 225 237 257 259 273 271 270 262 244 248 247 243 240 238 230 227 229 230
322 321 321 320 321 322 315 309 303 297 293 290 295 299 286 279 265 254 269 283 266 289 289 278 272 249 229 258 263 264 259 258 245 235 239 237 240 233 230 228 227 228 230
321 316 312 317 318 317 315 312 303 298 298 295 296 277 277 270 258 262 266 277 282 290 311 281 258 245 238 272 274 276 251 248 242 235 237 240 236 231 229 229 228 228 228
306 304 305 308 315 314 308 302 304 302 297 297 287 279 270 276 275 273 268 273 283 294 284 267 234 228 222 235 234 236 243 231 245 230 231 236 240 237 233 230 228 227 227
310 312 318 324 322 325 325 311 304 308 319 312 305 287 279 279 275 265 263 266 280 264 240 262 227 225 216 161 174 205 255 243 260 237 242 249 246 242 236 230 227 224 223
343 353 349 346 354 355 1 5 344 316 314 311 307 293 284 290 275 266 254 252 246 196 251 286 273 141 157 168 157 239 245 309 286 311 290 266 253 246 239 228 219 216 220
15 8 10 10 6 353 346 343 336 328 323 322 307 296 287 278 266 267 246 244 234 227 234 223 253 150 170 139 134 172 124 133 5 350 318 289 240 240 229 212 206 208 218
21 8 0 354 355 355 348 351 342 339 324 309 297 291 269 272 261 227 237 233 226 213 198 171 198 170 249 80 114 129 141 128 100 54 85 85 60 102 138 160 177 192 190
14 9 8 9 6 3 0 1 0 352 340 337 333 281 275 253 237 229 224 209 195 191 183 186 186 162 147 164 160 163 145 128 117 102 92 85 85 95 94 127 143 162 177
20 20 19 17 18 15 5 348 341 341 348 352 338 312 301 219 223 216 226 213 199 191 187 194 165 153 161 151 166 158 151 136 132 126 109 105 99 96 93 100 121 154 155
22 26 30 25 15 16 17 18 5 5 29 27 20 20 21 160 188 211 239 78 166 174 172 154 158 141 146 143 142 132 129 127 113 111 109 108 112 113 105 88 95 89 98
22 23 24 19 15 17 19 13 18 34 37 33 50 61 68 90 101 73 144 136 144 155 162 150 149 136 130 131 123 113 116 117 110 108 109 106 106 101 96 91 92 98 100
18 25 24 23 22 28 20 14 25 44 49 51 63 73 69 71 87 94 91 129 137 125 173 154 140 132 110 100 117 116 117 114 102 108 112 105 106 105 100 96 97 101 102
29 36 31 33 29 28 22 32 44 58 65 64 74 70 72 82 83 88 89 103 107 124 138 137 146 114 116 129 119 129 129 120 117 117 114 105 111 106 106 106 105 103 104
29 33 32 31 34 32 31 38 46 66 73 71 69 73 77 75 81 83 97 100 101 93 104 110 121 117 113 115 104 102 134 124 119 120 120 109 110 109 110 111 109 106 108
29 30 33 35 41 38 36 41 44 66 75 74 71 77 84 87 86 79 101 99 104 105 111 110 103 99 94 76 71 121 134 130 123 124 127 118 120 119 116 113 115 114 114
31 32 31 41 43 48 42 37 46 63 76 75 78 83 85 89 93 83 97 103 101 101 102 101 93 96 87 83 72 93 115 127 126 122 128 120 119 116 111 121 123 120 124
Wind_Speed_850mb
41 45 31 28 34 29 28 36 40 39 44 45 45 49 57 58 57 56 46 49 48 36 40 43 47 48 39 36 32 24 19 28 31 33 33 38 45 47 44 42 39 37 37
36 39 36 36 33 34 34 37 41 41 46 48 47 53 60 58 49 46 40 40 46 46 42 45 54 57 48 44 36 28 27 27 28 34 33 31 37 47 49 46 44 42 41
38 41 44 41 35 39 38 40 44 45 49 50 49 55 61 57 56 55 53 49 47 46 47 49 47 53 54 48 45 37 33 27 23 27 33 36 33 37 47 51 49 48 45
39 42 45 43 40 43 45 47 49 49 50 55 55 59 64 54 49 51 51 48 49 50 44 48 49 51 57 50 43 43 38 33 29 29 27 32 41 38 37 46 54 55 52
39 46 48 46 50 52 53 52 54 50 53 54 57 62 62 44 42 46 38 47 45 44 38 44 44 48 53 51 43 40 39 37 37 37 40 42 43 46 45 39 46 51 60
44 47 48 51 54 51 56 57 52 51 56 55 59 65 50 41 36 33 22 35 23 33 30 28 35 37 36 37 38 40 38 36 37 42 42 47 50 52 54 51 44 45 54
44 47 50 47 48 53 54 55 51 56 52 53 65 61 50 29 28 10 22 17 6 19 26 27 36 40 48 47 43 42 39 38 37 40 44 48 47 50 53 58 54 47 47
43 47 45 46 50 52 53 50 51 56 53 47 46 50 29 41 18 29 10 15 5 7 19 28 29 36 38 32 38 38 40 40 44 48 50 44 45 46 47 54 59 55 49
28 34 38 37 38 39 41 49 49 47 47 42 33 30 17 12 28 26 14 15 19 10 5 12 19 21 28 23 27 37 42 48 51 58 46 39 41 42 44 50 51 55 55
34 32 35 43 46 49 51 42 39 43 36 42 36 38 39 35 24 26 17 21 23 19 17 10 5 14 21 20 25 31 36 38 39 38 35 37 40 42 42 46 49 48 50
40 47 49 49 46 45 46 52 50 46 44 37 35 36 41 37 37 40 35 28 17 21 22 33 27 12 11 16 19 24 26 28 33 33 30 30 29 34 40 44 47 50 44
42 46 41 37 50 50 45 48 39 36 37 44 46 42 38 36 25 26 27 26 27 23 21 17 21 23 30 24 21 17 17 19 24 30 29 24 26 27 32 39 44 46 48
46 41 41 43 40 39 40 34 35 35 40 40 41 28 30 26 23 27 28 28 25 20 11 8 11 16 21 17 16 14 18 17 14 17 21 27 29 29 31 33 36 41 44
37 37 35 34 35 34 32 33 29 26 25 26 25 23 21 21 22 20 23 19 17 11 7 11 10 11 11 8 9 10 11 10 9 8 12 18 27 32 34 37 37 39 39
28 25 27 29 27 26 24 22 19 21 23 22 19 17 17 14 18 19 20 16 17 4 6 3 2 7 10 11 9 3 7 4 2 5 9 16 20 25 31 39 39 40 40
23 23 26 22 19 21 24 23 21 22 22 20 20 18 16 15 13 11 12 15 14 14 9 8 5 5 11 14 11 7 7 4 2 7 11 10 5 13 17 30 39 43 38
26 24 26 26 27 24 25 24 25 27 27 27 25 20 13 9 18 12 8 10 13 14 11 8 11 13 2 7 9 12 14 13 22 15 12 11 14 11 9 20 29 31 33
29 28 29 28 27 26 29 31 25 32 27 37 26 19 20 19 15 13 10 9 14 13 16 12 10 10 5 18 12 17 33 35 51 43 54 54 40 22 22 18 19 25 32
33 29 31 30 30 33 32 28 31 38 31 26 18 18 19 15 17 15 13 14 11 21 18 12 14 23 26 34 30 36 38 32 35 31 35 43 47 52 63 55 40 40 30
33 34 34 33 37 38 45 42 40 36 28 30 27 18 9 14 12 8 10 12 10 21 18 16 23 30 34 39 42 45 46 45 45 45 37 40 40 40 35 39 41 37 54
34 30 28 32 34 39 47 49 39 32 30 28 34 32 31 21 12 11 21 17 15 20 24 27 28 36 32 30 36 34 48 45 45 44 44 50 48 48 46 44 44 40 37
36 31 30 38 39 48 50 46 32 31 33 37 32 31 29 27 23 20 15 24 19 18 19 34 35 39 39 30 25 35 37 46 50 40 40 46 39 46 49 49 43 40 40
40 35 35 35 45 52 55 42 33 34 38 42 37 34 32 33 32 30 28 25 17 16 27 22 32 25 18 26 20 23 21 34 41 43 43 47 40 45 43 42 36 35 37
41 43 37 35 41 49 57 45 28 30 38 37 38 36 32 37 38 31 32 35 39 35 32 29 34 40 33 23 17 16 25 43 45 40 43 49 37 43 39 41 38 36 36
39 40 38 31 37 43 52 54 32 28 34 33 33 34 35 40 34 31 36 36 38 46 46 42 42 38 32 29 21 21 35 36 39 33 32 39 35 37 34 35 34 36 33
35 34 35 31 32 37 44 52 46 31 32 33 36 37 36 37 35 36 48 56 57 48 42 36 26 25 25 22 26 18 23 28 36 33 32 43 38 38 34 34 34 35 35
Wind_Direction_850mb
248 262 269 283 293 297 299 309 320 326 329 325 322 319 318 310 307 304 287 269 259 253 244 230 234 238 251 255 247 237 264 286 251 242 237 234 232 230 229 227 223 220 220
237 263 268 280 277 295 307 318 321 323 330 327 323 317 317 314 309 306 298 281 258 249 241 240 232 237 244 248 237 230 261 278 264 247 239 235 233 230 229 229 226 222 221
259 266 271 273 287 306 305 311 315 319 328 323 318 320 320 313 308 305 296 282 263 246 243 240 240 235 239 240 234 225 234 238 255 261 251 243 239 232 230 228 229 228 225
274 279 276 267 290 297 300 303 309 314 319 319 318 320 324 316 312 309 304 290 266 248 243 242 243 238 233 231 229 229 230 233 245 252 260 257 249 243 235 230 229 228 227
282 275 274 276 287 287 289 291 296 305 309 312 313 320 321 316 310 311 312 297 288 243 248 240 237 234 227 227 220 225 231 244 253 259 259 257 251 247 242 235 233 231 227
289 272 276 280 280 281 290 293 293 301 308 310 314 319 313 315 306 306 308 331 293 234 245 231 216 209 208 209 206 215 232 247 265 272 271 256 245 240 239 236 234 233 230
291 281 285 288 287 291 287 286 295 297 296 305 311 315 308 315 311 297 284 319 267 200 204 212 206 213 212 221 228 229 242 255 262 273 274 263 240 240 236 235 233 233 233
279 278 277 283 285 285 292 293 291 292 295 298 305 307 310 314 303 303 274 266 251 189 200 192 191 198 195 218 214 239 248 257 273 274 274 251 239 239 240 233 231 231 233
294 290 285 289 291 292 297 296 296 291 302 304 295 289 295 283 298 304 306 236 253 285 252 216 215 223 222 241 250 254 264 271 276 274 256 238 237 242 238 230 229 230 231
309 299 303 307 310 311 311 303 293 300 304 299 292 286 286 268 268 284 245 247 289 282 265 248 207 225 237 257 259 273 271 270 262 244 248 247 243 240 238 230 227 229 230
322 321 321 320 321 322 315 309 303 297 293 290 295 299 286 279 265 254 269 283 266 289 289 278 272 249 229 258 263 264 259 258 245 235 239 237 240 233 230 228 227 228 230
321 316 312 317 318 317 315 312 303 298 298 295 296 277 277 270 258 262 266 277 282 290 311 281 258 245 238 272 274 276 251 248 242 235 237 240 236 231 229 229 228 228 228
306 304 305 308 315 314 308 302 304 302 297 297 287 279 270 276 275 273 268 273 283 294 284 267 234 228 222 235 234 236 243 231 245 230 231 236 240 237 233 230 228 227 227
310 312 318 324 322 325 325 311 304 308 319 312 305 287 279 279 275 265 263 266 280 264 240 262 227 225 216 161 174 205 255 243 260 237 242 249 246 242 236 230 227 224 223
343 353 349 346 354 355 1 5 344 316 314 311 307 293 284 290 275 266 254 252 246 196 251 286 273 141 157 168 157 239 245 309 286 311 290 266 253 246 239 228 219 216 220
15 8 10 10 6 353 346 343 336 328 323 322 307 296 287 278 266 267 246 244 234 227 234 223 253 150 170 139 134 172 124 133 5 350 318 289 240 240 229 212 206 208 218
21 8 0 354 355 355 348 351 342 339 324 309 297 291 269 272 261 227 237 233 226 213 198 171 198 170 249 80 114 129 141 128 100 54 85 85 60 102 138 160 177 192 190
14 9 8 9 6 3 0 1 0 352 340 337 333 281 275 253 237 229 224 209 195 191 183 186 186 162 147 164 160 163 145 128 117 102 92 85 85 95 94 127 143 162 177
20 20 19 17 18 15 5 348 341 341 348 352 338 312 301 219 223 216 226 213 199 191 187 194 165 153 161 151 166 158 151 136 132 126 109 105 99 96 93 100 121 154 155
22 26 30 25 15 16 17 18 5 5 29 27 20 20 21 160 188 211 239 78 166 174 172 154 158 141 146 143 142 132 129 127 113 111 109 108 112 113 105 88 95 89 98
22 23 24 19 15 17 19 13 18 34 37 33 50 61 68 90 101 73 144 136 144 155 162 150 149 136 130 131 123 113 116 117 110 108 109 106 106 101 96 91 92 98 100
18 25 24 23 22 28 20 14 25 44 49 51 63 73 69 71 87 94 91 129 137 125 173 154 140 132 110 100 117 116 117 114 102 108 112 105 106 105 100 96 97 101 102
29 36 31 33 29 28 22 32 44 58 65 64 74 70 72 82 83 88 89 103 107 124 138 137 146 114 116 129 119 129 129 120 117 117 114 105 111 106 106 106 105 103 104
29 33 32 31 34 32 31 38 46 66 73 71 69 73 77 75 81 83 97 100 101 93 104 110 121 117 113 115 104 102 134 124 119 120 120 109 110 109 110 111 109 106 108
29 30 33 35 41 38 36 41 44 66 75 74 71 77 84 87 86 79 101 99 104 105 111 110 103 99 94 76 71 121 134 130 123 124 127 118 120 119 116 113 115 114 114
31 32 31 41 43 48 42 37 46 63 76 75 78 83 85 89 93 83 97 103 101 101 102 101 93 96 87 83 72 93 115 127 126 122 128 120 119 116 111 121 123 120 124